Wind_Speed
22 22 21 21 21 22 22 22 22 22 22 22 22 22 23 23 24 24 24 23 24 24 24 24 25 25 25 26 26 26 27 29 30 32 33 34 35 34 33 35 37 38 39 37
23 22 22 22 22 22 23 23 23 23 23 23 23 23 23 23 24 24 24 23 23 23 23 24 24 24 25 24 25 26 26 27 28 30 32 34 36 35 34 34 35 36 37 36
24 24 23 23 23 23 23 24 24 24 24 24 24 23 23 23 24 24 23 22 23 23 23 23 24 24 23 23 23 24 25 26 27 28 31 33 34 34 35 35 35 36 37 36
25 24 24 24 24 24 24 24 25 25 25 25 25 25 22 23 23 22 21 21 22 22 23 23 24 22 22 22 22 23 23 24 25 26 28 30 31 31 32 34 35 36 37 37
25 25 25 25 24 25 25 25 25 25 25 26 25 26 23 23 22 22 21 20 20 21 22 22 23 22 22 22 21 22 22 22 23 25 26 28 29 29 31 33 35 35 37 38
27 27 26 25 25 25 26 26 26 26 27 27 25 26 25 23 22 21 21 20 20 21 21 22 21 21 21 21 21 21 21 21 22 23 25 26 28 29 30 31 33 35 36 36
28 27 27 26 26 26 26 26 28 28 28 27 26 26 25 24 23 22 21 20 21 21 22 21 21 21 21 20 20 20 20 21 21 22 24 25 27 28 29 30 31 33 35 35
29 28 28 28 28 28 28 28 29 30 30 29 27 26 25 25 24 23 22 21 22 22 22 22 22 21 20 20 20 20 20 20 21 22 23 24 24 26 27 28 29 32 34 35
32 31 30 30 29 29 29 29 29 30 31 30 29 27 25 25 24 23 23 22 23 22 22 22 22 21 21 21 20 20 19 19 20 21 21 23 24 24 25 27 27 30 33 33
34 34 32 32 32 31 30 30 30 31 31 31 30 27 26 25 24 23 23 23 23 23 23 22 22 22 22 22 21 20 20 20 20 20 21 21 22 24 25 26 27 30 31 32
36 36 35 34 33 31 31 31 31 32 32 32 32 29 27 25 25 25 24 24 24 24 24 23 22 22 22 22 21 21 20 20 20 20 20 22 22 23 25 26 27 30 32 33
37 38 37 36 35 34 33 32 32 32 32 32 33 30 27 27 27 27 26 25 25 25 24 23 22 22 23 23 22 22 21 20 19 20 21 22 23 24 25 27 28 30 32 32
38 39 38 37 36 36 35 34 33 33 33 33 32 30 28 28 28 28 27 26 25 25 24 23 23 23 23 24 24 23 22 21 20 20 21 22 24 24 25 26 27 28 30 32
39 39 39 38 37 36 37 36 35 35 35 35 33 31 28 28 29 29 28 27 26 25 24 24 23 23 24 24 24 24 24 22 22 22 22 23 23 24 25 26 26 28 29 30
40 41 39 39 39 39 38 38 37 37 36 36 34 32 30 30 30 29 29 28 27 26 25 25 25 25 25 25 25 25 24 24 24 24 24 24 24 26 27 27 28 28 29 30
40 41 41 40 39 39 41 39 38 38 37 36 35 33 30 31 31 30 29 29 28 27 27 27 26 26 25 26 25 26 26 25 26 27 27 27 27 28 29 27 28 28 28 29
40 41 41 41 41 42 42 38 38 38 37 37 36 34 32 32 32 32 31 30 29 28 28 28 28 27 26 26 26 26 26 26 27 27 28 27 28 28 28 28 28 29 29 30
40 40 42 42 42 44 40 38 38 38 38 37 36 34 33 34 34 33 33 32 31 29 29 30 29 28 27 27 27 27 27 27 28 27 27 27 27 27 27 28 29 30 31 31
39 40 41 42 42 42 39 38 38 38 37 37 36 35 35 34 35 34 34 34 33 31 31 31 30 30 29 29 29 28 28 29 29 28 27 27 28 29 29 29 30 30 30 31
40 40 41 41 42 42 39 37 37 38 37 36 36 36 36 35 36 35 35 35 34 33 32 32 31 32 32 32 32 31 31 30 29 28 28 29 29 30 30 31 31 31 32 33
39 40 41 41 42 40 37 36 36 37 37 36 37 37 36 36 36 36 36 35 35 34 34 34 33 33 33 33 33 32 32 30 30 29 29 30 31 31 31 32 33 34 34 35
38 39 39 40 41 40 37 37 37 37 38 37 36 36 36 36 36 36 35 35 34 34 34 34 34 34 35 35 34 34 33 32 32 31 31 32 33 33 34 34 35 35 36 36
39 39 39 40 39 39 38 38 37 38 37 37 37 37 37 37 37 36 36 36 35 35 34 35 35 35 35 36 36 35 35 34 34 34 34 34 34 35 36 36 36 36 37 38
38 38 40 40 39 39 39 38 38 37 38 37 37 37 37 37 37 37 37 36 36 35 35 36 36 36 35 36 36 36 36 36 36 36 36 36 36 36 36 37 37 38 39 39
37 38 39 40 39 40 39 38 38 38 38 39 39 38 37 37 36 36 36 36 36 36 36 36 37 36 36 37 37 37 37 37 37 37 38 38 38 38 38 39 39 40 40 41
35 37 39 39 38 39 39 39 39 38 38 38 38 38 38 38 38 37 37 37 38 38 38 38 37 37 37 37 37 38 38 39 39 39 40 40 40 40 40 40 41 42 42 42
Wind_Direction
272 273 276 279 280 282 285 287 290 294 296 297 297 298 299 299 299 299 297 294 294 296 297 295 294 294 292 287 281 276 271 266 261 258 257 254 253 251 248 244 241 241 241 242
271 273 276 277 279 281 284 287 289 292 295 296 297 297 299 299 299 300 298 294 292 297 298 298 298 297 295 289 282 277 273 268 265 262 259 255 252 251 249 246 243 241 240 239
270 273 275 276 278 280 283 286 289 292 294 295 295 296 300 301 300 299 298 296 294 297 299 299 299 299 297 291 284 280 277 272 268 266 262 257 255 253 252 249 247 243 240 240
270 273 274 275 276 280 283 286 288 291 293 294 296 296 300 302 301 300 298 296 296 297 300 301 302 300 299 294 287 283 280 276 273 268 263 259 257 254 253 251 250 244 241 242
269 271 272 273 275 278 282 284 286 288 290 293 295 297 301 302 301 300 299 298 299 301 301 302 303 302 300 297 291 286 283 280 276 271 266 262 259 257 254 251 248 243 242 243
268 270 270 271 273 276 280 282 284 286 289 291 295 297 300 301 301 300 299 299 301 302 301 302 303 303 303 301 296 291 285 281 278 274 270 265 260 259 256 251 249 245 243 244
267 269 269 269 271 274 278 281 284 286 288 291 294 296 299 300 299 297 296 298 301 301 302 301 304 305 305 304 299 293 288 283 279 275 270 267 263 260 255 250 248 245 244 244
266 267 268 269 270 273 276 279 282 286 289 291 291 293 298 298 297 295 294 298 301 302 303 302 304 307 305 305 301 298 290 286 281 276 270 268 265 261 256 252 250 247 245 246
267 267 267 268 269 271 274 277 281 284 286 289 290 293 295 297 297 294 294 296 297 299 302 303 304 305 306 306 303 302 296 288 282 277 271 268 265 261 258 254 255 250 248 249
266 267 267 268 268 269 272 276 279 281 285 288 290 292 295 296 295 295 296 296 295 297 300 302 302 304 304 305 304 302 299 291 285 279 272 268 265 262 260 258 257 252 249 250
265 266 266 267 268 269 270 273 276 279 281 286 289 291 292 293 292 292 294 295 295 294 297 300 300 301 303 304 304 302 300 296 287 280 275 271 268 267 265 261 262 258 254 252
265 266 266 266 266 267 268 270 273 277 280 281 284 288 289 290 290 289 290 290 292 293 293 297 299 298 301 303 304 303 301 296 289 284 279 276 272 270 269 267 268 263 260 256
264 265 266 266 266 266 267 268 270 273 276 278 281 285 287 287 286 286 286 286 287 289 291 294 296 296 297 298 299 299 298 293 290 285 280 278 275 274 272 270 270 268 264 261
263 264 265 266 267 267 267 267 268 270 273 276 279 282 282 283 283 283 283 283 284 286 289 291 293 295 296 296 296 296 295 292 289 286 283 281 279 277 275 273 272 270 268 265
262 263 264 265 266 266 266 266 266 267 269 272 275 277 279 279 279 280 280 279 280 282 286 288 289 291 294 295 295 293 292 290 289 287 285 284 281 279 279 276 275 273 270 267
263 264 264 263 264 265 265 265 266 267 267 270 272 274 275 276 276 277 278 278 279 280 284 286 288 289 290 291 293 293 291 288 288 289 288 286 285 282 281 278 278 276 273 271
263 265 265 264 264 264 265 266 267 268 268 269 270 273 272 272 274 275 276 277 278 279 282 284 286 287 289 290 291 292 292 289 289 290 288 286 284 282 281 280 279 279 279 276
264 265 266 267 266 264 267 267 267 267 268 268 269 271 271 271 272 273 274 276 278 279 280 281 283 283 284 286 288 290 290 291 292 291 288 286 284 283 282 280 281 281 280 278
263 265 267 268 268 267 266 268 268 268 267 267 268 269 270 270 271 271 273 274 276 277 278 280 281 281 282 284 286 287 288 289 290 289 287 286 286 284 283 283 282 282 282 282
261 263 265 267 268 269 269 267 267 269 270 268 267 268 269 269 270 271 271 272 274 275 277 279 280 281 282 282 283 285 286 287 288 287 286 286 286 285 284 283 284 283 283 283
260 261 263 265 268 269 269 268 267 268 269 268 267 267 267 267 269 270 271 273 274 276 277 278 279 280 281 281 282 283 283 284 284 285 285 286 286 286 286 285 285 284 284 285
261 261 261 263 264 266 268 266 266 267 266 266 266 267 267 267 269 270 271 272 274 275 277 278 279 280 280 280 281 281 281 280 282 283 284 285 285 286 286 286 286 286 286 286
261 261 261 262 263 264 265 265 266 266 265 264 265 266 266 267 268 269 270 271 273 274 276 277 278 279 279 279 279 279 280 279 280 281 282 284 285 285 286 287 287 287 288 288
261 261 261 262 262 263 263 264 264 264 263 264 265 266 267 268 269 269 270 271 272 274 275 276 277 278 278 278 278 277 277 278 280 281 282 284 285 286 287 288 288 288 289 289
261 261 262 263 264 263 263 263 264 264 264 264 264 266 267 269 269 270 270 271 272 273 274 275 276 277 277 278 277 276 277 277 279 280 281 282 284 285 286 287 288 289 290 290
261 262 263 265 266 266 264 262 263 264 264 264 264 265 266 267 268 269 269 270 271 271 273 275 276 276 276 276 275 275 275 277 278 279 281 282 283 284 285 286 287 289 291 291
Height
5750 5751 5750 5749 5748 5747 5745 5743 5742 5740 5737 5735 5733 5731 5729 5726 5723 5721 5718 5716 5714 5711 5709 5707 5705 5702 5700 5698 5697 5696 5695 5695 5696 5697 5698 5699 5701 5703 5706 5708 5712 5715 5719 5722
5746 5745 5745 5743 5742 5741 5739 5738 5736 5735 5732 5730 5728 5726 5724 5720 5718 5716 5713 5710 5708 5706 5703 5701 5699 5696 5693 5691 5689 5688 5687 5687 5687 5689 5690 5691 5692 5694 5697 5700 5703 5706 5710 5714
5739 5740 5738 5737 5736 5735 5734 5733 5731 5729 5726 5724 5722 5721 5719 5716 5712 5710 5707 5705 5703 5701 5698 5696 5693 5690 5687 5685 5683 5682 5681 5680 5680 5681 5681 5682 5684 5686 5689 5692 5695 5698 5702 5705
5732 5733 5732 5731 5730 5729 5728 5727 5725 5723 5720 5718 5717 5714 5715 5711 5708 5705 5703 5700 5698 5696 5693 5690 5688 5685 5682 5680 5678 5676 5675 5675 5674 5674 5675 5676 5678 5680 5682 5685 5687 5690 5694 5697
5726 5726 5725 5725 5725 5723 5722 5721 5719 5717 5715 5713 5711 5709 5709 5706 5703 5701 5698 5696 5693 5691 5688 5686 5683 5680 5677 5675 5673 5671 5670 5669 5669 5668 5669 5670 5671 5673 5675 5677 5680 5683 5686 5690
5720 5719 5719 5719 5718 5717 5716 5715 5713 5711 5709 5708 5707 5703 5702 5700 5698 5696 5694 5691 5689 5687 5684 5681 5678 5675 5673 5670 5668 5666 5665 5664 5664 5663 5663 5664 5665 5666 5668 5670 5673 5675 5679 5682
5713 5713 5712 5712 5712 5711 5710 5709 5707 5705 5703 5702 5701 5698 5697 5695 5693 5691 5689 5687 5685 5683 5680 5677 5674 5671 5668 5666 5663 5662 5660 5659 5659 5658 5658 5658 5659 5660 5661 5663 5666 5668 5672 5675
5705 5706 5706 5705 5705 5705 5704 5703 5702 5699 5697 5696 5695 5693 5693 5690 5688 5686 5685 5683 5680 5678 5675 5673 5670 5667 5664 5662 5659 5657 5656 5655 5654 5653 5653 5653 5653 5654 5655 5657 5659 5662 5665 5668
5696 5698 5698 5698 5697 5697 5696 5696 5695 5693 5690 5688 5688 5688 5687 5685 5683 5682 5680 5678 5676 5673 5671 5668 5666 5663 5660 5658 5655 5653 5651 5650 5649 5648 5648 5648 5649 5649 5650 5651 5653 5655 5658 5661
5687 5688 5690 5690 5690 5690 5690 5689 5688 5686 5683 5681 5681 5681 5682 5680 5678 5677 5675 5673 5670 5668 5666 5664 5661 5659 5656 5654 5651 5649 5647 5646 5645 5644 5643 5643 5644 5644 5645 5645 5647 5649 5651 5653
5678 5679 5681 5681 5682 5682 5682 5681 5680 5678 5677 5675 5673 5678 5676 5674 5672 5671 5669 5667 5665 5663 5661 5659 5656 5654 5652 5649 5647 5645 5643 5642 5640 5640 5639 5639 5639 5639 5639 5640 5641 5642 5644 5645
5669 5669 5670 5672 5673 5673 5673 5673 5672 5671 5670 5668 5667 5671 5669 5668 5666 5664 5663 5661 5659 5657 5656 5654 5651 5649 5647 5645 5643 5641 5639 5637 5636 5635 5634 5634 5634 5634 5633 5634 5634 5635 5636 5638
5659 5659 5660 5662 5665 5664 5663 5664 5663 5662 5661 5660 5660 5665 5663 5661 5659 5657 5656 5655 5653 5652 5650 5648 5646 5644 5642 5640 5638 5636 5634 5632 5631 5630 5630 5629 5628 5628 5627 5627 5627 5628 5629 5630
5648 5649 5651 5653 5653 5653 5653 5654 5654 5653 5652 5652 5653 5655 5656 5653 5651 5650 5649 5648 5647 5646 5644 5643 5641 5639 5638 5635 5633 5631 5630 5628 5626 5625 5624 5623 5623 5622 5621 5621 5620 5621 5621 5622
5637 5639 5640 5641 5642 5642 5643 5644 5644 5643 5644 5643 5645 5646 5647 5645 5643 5643 5642 5641 5640 5639 5638 5637 5635 5634 5632 5630 5628 5626 5624 5623 5621 5620 5619 5618 5617 5616 5615 5614 5613 5613 5613 5613
5626 5627 5629 5630 5631 5630 5631 5634 5634 5634 5634 5635 5635 5637 5639 5637 5636 5635 5634 5633 5633 5632 5631 5630 5629 5628 5626 5624 5622 5620 5619 5617 5616 5614 5613 5611 5610 5609 5608 5607 5607 5606 5606 5605
5616 5617 5617 5618 5620 5619 5621 5626 5625 5625 5626 5626 5626 5629 5629 5628 5627 5627 5626 5625 5625 5625 5624 5623 5622 5621 5619 5617 5616 5614 5612 5611 5609 5607 5606 5604 5603 5602 5601 5600 5600 5599 5599 5598
5606 5606 5605 5606 5608 5607 5615 5615 5615 5614 5615 5616 5616 5618 5618 5618 5618 5618 5618 5617 5617 5617 5616 5615 5614 5613 5612 5610 5609 5607 5606 5604 5602 5600 5599 5597 5596 5595 5594 5594 5593 5592 5591 5590
5595 5595 5595 5595 5595 5596 5602 5604 5604 5603 5605 5606 5606 5608 5608 5608 5608 5609 5609 5609 5609 5609 5608 5607 5606 5605 5604 5603 5601 5600 5598 5597 5595 5593 5591 5590 5589 5588 5587 5586 5585 5583 5582 5581
5585 5585 5585 5584 5584 5585 5592 5593 5592 5593 5594 5597 5596 5597 5598 5598 5599 5601 5600 5599 5599 5599 5599 5598 5598 5597 5596 5594 5593 5592 5590 5589 5587 5586 5584 5583 5582 5581 5579 5578 5577 5575 5574 5572
5574 5574 5574 5574 5573 5575 5580 5581 5582 5583 5585 5585 5585 5586 5588 5588 5589 5590 5590 5590 5590 5590 5590 5589 5588 5588 5586 5585 5584 5583 5582 5581 5579 5578 5576 5575 5574 5572 5571 5570 5568 5566 5564 5563
5562 5563 5564 5564 5563 5568 5570 5569 5571 5572 5572 5573 5574 5575 5577 5578 5578 5579 5579 5580 5580 5580 5580 5579 5579 5578 5577 5576 5575 5574 5573 5572 5570 5569 5568 5566 5565 5563 5562 5560 5558 5556 5554 5553
5551 5553 5553 5553 5556 5557 5558 5558 5559 5560 5561 5562 5563 5565 5566 5567 5568 5569 5569 5570 5570 5570 5570 5569 5569 5568 5567 5566 5565 5564 5563 5562 5561 5560 5558 5557 5555 5553 5552 5550 5548 5546 5544 5542
5540 5541 5541 5542 5545 5546 5546 5547 5548 5549 5550 5551 5552 5554 5555 5556 5557 5558 5559 5559 5559 5559 5559 5559 5558 5558 5557 5555 5554 5553 5553 5552 5551 5550 5548 5547 5545 5543 5541 5539 5537 5535 5533 5531
5530 5530 5529 5530 5534 5534 5535 5536 5537 5538 5539 5540 5542 5543 5545 5546 5547 5547 5548 5549 5549 5549 5549 5548 5548 5547 5546 5545 5544 5543 5542 5541 5540 5539 5538 5536 5535 5533 5531 5529 5527 5524 5522 5519
5520 5520 5519 5520 5523 5522 5524 5525 5526 5526 5528 5530 5531 5533 5534 5535 5536 5536 5537 5537 5538 5538 5538 5537 5537 5536 5535 5534 5533 5532 5531 5530 5529 5528 5527 5525 5524 5522 5520 5518 5516 5513 5511 5508